Content
SEND FEEDBACK

Daily
Averages
Monthly
Summary
United States of America

TRUESDALE, MISSOURI


Home > North America > United States > Missouri
Elevation: 843 feet     Latitude: 38 36N     Longitude: 091 12W

WEATHER
 
SELECT A DAY
Number of Records: 188,419;   Date Range: 1/1/95 - 9/29/14
 
SHARE

PRINT THIS DATA

[ ← Previous Day ]
WEATHER ALMANAC - MARCH 16, 2013
[ Next Day → ]
[ °C ]   °F
Weather ElementAverageHighLow
Temperature46.3 °F63 °F (2:53 am)39 °F (10:53 pm)
Dewpoint38 °F45 °F (6:53 am)35.1 °F (4:53 pm)
Humidity74.4 %93 % (9:13 pm)45 % (2:53 am)
Barometer29.93 in30.06 in (10:38 pm)29.64 in (1:53 am)
Wind Speed9.8 mph21.9 mph (9:27 am)
Wind Gust29.9 mph (10:53 am)
Weather ElementAverage
Visibility6.6 mi
Wind DirectionSSW (198.7 °)

Weather ElementTotal
Precipitation0.03 in
Heating Degree Days14 (Base 65)
Growing Degree Days1 (Base 50)
Averaged from 30 records on March 16, 2013
WEATHER CONDITIONS BREAKOUT
WIND DIRECTION BREAKOUT
WEATHER BY HOUR - MARCH 16, 2013
[ °C ]   °F
Local TimeTemperatureDewpointHumidityBarometerVisibilityWind DirectionWind SpeedGust SpeedPrecipitationEventsConditions
1:53 AM60.1 °F41.0 °F49 %29.64 in10.0 miSSW (200°)4.6 mphClear
2:53 AM63.0 °F41.0 °F45 %29.65 in10.0 miSW (230°)5.8 mphClear
3:53 AM62.1 °F42.1 °F48 %29.65 in10.0 miWSW (240°)6.9 mphClear
4:53 AM63.0 °F43.0 °F48 %29.67 in10.0 miWest (260°)5.8 mphClear
5:53 AM55.9 °F43.0 °F62 %29.71 in10.0 miNW (310°)9.2 mphClear
6:53 AM55.0 °F45.0 °F69 %29.75 in10.0 miNW (310°)10.4 mphClear
7:53 AM52.0 °F43.0 °F71 %29.79 in10.0 miNW (320°)15.0 mphClear
8:53 AM48.9 °F41.0 °F74 %29.85 in7.0 miNNW (330°)19.6 mphClear
9:27 AM46.4 °F39.2 °F76 %29.89 in4.0 miNNW (340°)21.9 mphHaze
9:50 AM44.6 °F37.4 °F76 %29.92 in3.0 miNorth (360°)17.3 mph24.2 mphHaze
9:53 AM44.1 °F37.9 °F79 %29.92 in3.0 miNorth (350°)17.3 mph24.2 mphHaze
10:53 AM42.1 °F36.0 °F79 %29.94 in3.0 miNNW (330°)15.0 mph29.9 mphHaze
11:10 AM42.8 °F35.6 °F76 %29.95 in4.0 miNNW (340°)13.8 mph20.7 mphHaze
11:53 AM44.1 °F36.0 °F73 %29.97 in5.0 miNNW (340°)13.8 mphHaze
12:53 PM45.0 °F36.0 °F71 %30.00 in6.0 miNNW (340°)12.7 mphHaze
1:53 PM45.0 °F36.0 °F71 %29.99 in5.0 miNNW (340°)12.7 mphHaze
2:53 PM45.0 °F36.0 °F71 %30.00 in5.0 miNNW (340°)12.7 mphHaze
3:53 PM45.0 °F36.0 °F71 %30.01 in5.0 miNNW (340°)11.5 mphHaze
4:53 PM44.1 °F35.1 °F71 %30.02 in5.0 miNorth (10°)9.2 mphHaze
5:53 PM43.0 °F35.1 °F74 %30.01 in8.0 miNE (40°)9.2 mph0.00 inOvercast
6:53 PM42.1 °F36.0 °F79 %30.02 in5.0 miNNE (20°)9.2 mph0.00 inRainLight Rain
7:53 PM39.9 °F37.0 °F89 %30.04 in4.0 miNNE (30°)3.5 mph0.02 inRainLight Rain
8:53 PM39.9 °F37.0 °F89 %30.05 in5.0 miCalm0.01 inRainLight Rain
9:13 PM39.2 °F37.4 °F93 %30.05 in5.0 miNNE (30°)3.5 mph0.00 inOvercast
9:53 PM39.9 °F36.0 °F86 %30.04 in6.0 miNE (40°)9.2 mph0.00 inOvercast
10:25 PM39.2 °F35.6 °F87 %30.05 in7.0 miENE (60°)3.5 mphMostly Cloudy
10:38 PM39.2 °F37.4 °F93 %30.06 in6.0 miCalmMostly Cloudy
10:53 PM39.0 °F36.0 °F89 %30.06 in8.0 miNE (40°)8.1 mphOvercast
11:15 PM39.2 °F35.6 °F87 %30.05 in9.0 miNNE (30°)8.1 mphOvercast
11:53 PM39.0 °F35.1 °F86 %30.06 in9.0 miNE (40°)5.8 mphOvercast
Hourly data recorded from KCPS, located miles away from Truesdale, Missouri







STORIES FROM OUR PARTNERS